Location: Ford County Road and Bridge Department
(37.7686°N, 99.9762°W)
Time: 05:29:11
(UTC+00:00)

Cosmos 1241 Rocket - Pass Details

Date: 18 January 2020
Orbit: 943 x 1005 km, 65.8° (Epoch: 19 February)

Event Time Altitude Azimuth Distance (km) Brightness Sun altitude
Rises 01:32:11 0° 333° (NNW) 3,613 7.7 -20.6°
Reaches altitude 10° 01:34:46 10° 337° (NNW) 2,667 6.9 -21.1°
Maximum altitude 01:40:55 61° 58° (ENE) 1,068 4.4 -22.3°
Enters shadow 01:43:23 36° 122° (ESE) 1,456 5.0 -22.8°
